User: anonymous   Login
Location: Dammartin
(48.9032°N, 1.6195°E)
Time: 04:14:33
(UTC+00:00)
Language:

Cosmos 2278 Rocket - Orbit

View from above orbital plane
View from above orbital plane
View from above satellite
View from above satellite

Ground track
Ground track

The orbit data is extracted from the following two-line orbital elements,

1 23088U 94023B   24110.36252502  .00000347  00000-0  20445-3 0  9994
2 23088  70.9995  78.3618 0005641 267.7688  92.2788 14.14835101548589
Epoch (UTC): 19 April 2024 08:42:02
Eccentricity: 0.0005641
inclination: 70.9995°
perigee height: 839 km
apogee height: 847 km
right ascension of ascending node: 78.3618°
argument of perigee: 267.7688°
revolutions per day: 14.14835101
mean anomaly at epoch: 92.2788°
orbit number at epoch: 54858

The dashed part of the orbit path shows where the satellite is in the earth's shadow,  

DLR